WJA375 CYXE-CYYC

Flight info

Callsign WJA375
Flight time 0h 50m
Altitude 36000
Route OVATA DCT BORIX DCT BIRKO BIRKO6
Aircraft B38M/M-SDE1FGHILORVWXY/HB1

Departure

Time 2026-04-24 04:04
Airport Saskatoon John G. Diefenbaker International Airport (CYXE)

Arrival

Time 2026-04-24 04:54
Airport Calgary International Airport (CYYC)
Time Latitude Longitude Altitude Speed Heading
2026-04-24 03:41 52.17023 -106.69265 1651 ft 0 kts 167°
2026-04-24 03:56 52.17030 -106.69268 1652 ft 3 kts 166°
2026-04-24 03:56 52.17049 -106.69276 1652 ft 3 kts 165°
2026-04-24 03:57 52.17066 -106.69282 1652 ft 3 kts 167°
2026-04-24 03:57 52.17083 -106.69294 1651 ft 3 kts 136°
2026-04-24 03:57 52.17094 -106.69319 1651 ft 3 kts 113°
2026-04-24 03:57 52.17102 -106.69349 1652 ft 3 kts 119°
2026-04-24 03:58 52.17109 -106.69366 1652 ft 0 kts 134°
2026-04-24 04:00 52.17108 -106.69365 1652 ft 1 kts 134°
2026-04-24 04:00 52.17095 -106.69321 1651 ft 10 kts 95°
2026-04-24 04:00 52.17126 -106.69180 1652 ft 14 kts 64°
2026-04-24 04:01 52.17180 -106.69065 1653 ft 12 kts 58°
2026-04-24 04:01 52.17185 -106.68943 1654 ft 11 kts 97°
2026-04-24 04:01 52.17167 -106.68803 1662 ft 15 kts 102°
2026-04-24 04:01 52.17146 -106.68632 1662 ft 15 kts 101°
2026-04-24 04:02 52.17128 -106.68474 1656 ft 14 kts 99°
2026-04-24 04:02 52.17124 -106.68325 1654 ft 13 kts 69°
2026-04-24 04:02 52.17182 -106.68272 1666 ft 6 kts 11°
2026-04-24 04:02 52.17214 -106.68262 1658 ft 4 kts 11°
2026-04-24 04:03 52.17238 -106.68255 1661 ft 5 kts 11°
2026-04-24 04:03 52.17318 -106.68230 1653 ft 17 kts 10°
2026-04-24 04:03 52.17429 -106.68291 1651 ft 18 kts 290°
2026-04-24 04:03 52.17460 -106.68529 1652 ft 45 kts 281°
2026-04-24 04:04 52.17584 -106.69554 1671 ft 135 kts 282°
2026-04-24 04:04 52.17791 -106.71292 2397 ft 166 kts 284°
2026-04-24 04:04 52.17995 -106.73218 3686 ft 181 kts 285°
2026-04-24 04:04 52.18216 -106.75343 4807 ft 199 kts 284°
2026-04-24 04:05 52.18458 -106.77707 5771 ft 228 kts 283°
2026-04-24 04:05 52.18584 -106.80411 6928 ft 246 kts 270°
2026-04-24 04:05 52.18402 -106.83262 8223 ft 264 kts 267°
2026-04-24 04:05 52.18197 -106.86327 9475 ft 278 kts 266°
2026-04-24 04:06 52.17923 -106.89528 10643 ft 290 kts 264°
2026-04-24 04:06 52.17655 -106.92819 11855 ft 295 kts 266°
2026-04-24 04:06 52.17411 -106.96193 12799 ft 304 kts 266°
2026-04-24 04:06 52.17169 -106.99658 13717 ft 312 kts 266°
2026-04-24 04:07 52.16925 -107.03203 14551 ft 318 kts 267°
2026-04-24 04:07 52.16679 -107.06812 15396 ft 324 kts 266°
2026-04-24 04:07 52.16429 -107.10495 16218 ft 330 kts 265°
2026-04-24 04:07 52.16172 -107.14244 17026 ft 336 kts 265°
2026-04-24 04:08 52.15911 -107.18065 17817 ft 342 kts 264°
2026-04-24 04:08 52.15643 -107.21948 18518 ft 348 kts 264°
2026-04-24 04:08 52.15370 -107.25905 19192 ft 353 kts 264°
2026-04-24 04:08 52.15092 -107.29908 19856 ft 358 kts 263°
2026-04-24 04:09 52.14809 -107.33960 20510 ft 363 kts 263°
2026-04-24 04:09 52.14522 -107.38068 21139 ft 368 kts 263°
2026-04-24 04:09 52.14228 -107.42232 21756 ft 373 kts 263°
2026-04-24 04:09 52.13929 -107.46458 22389 ft 377 kts 262°
2026-04-24 04:10 52.13625 -107.50721 22989 ft 382 kts 262°
2026-04-24 04:10 52.13315 -107.55046 23565 ft 387 kts 262°
2026-04-24 04:10 52.13001 -107.59417 24088 ft 391 kts 262°
2026-04-24 04:11 52.12359 -107.68259 25191 ft 396 kts 261°
2026-04-24 04:11 52.12033 -107.72725 25747 ft 399 kts 261°
2026-04-24 04:11 52.11702 -107.77225 26296 ft 402 kts 261°
2026-04-24 04:11 52.11367 -107.81761 26836 ft 405 kts 261°
2026-04-24 04:12 52.11028 -107.86330 27366 ft 408 kts 261°
2026-04-24 04:12 52.10684 -107.90925 27911 ft 410 kts 261°
2026-04-24 04:12 52.10454 -107.93984 28261 ft 412 kts 261°
2026-04-24 04:12 52.09960 -108.00204 28893 ft 417 kts 259°
2026-04-24 04:13 52.09660 -108.03287 29209 ft 418 kts 258°
2026-04-24 04:13 52.09205 -108.07980 29709 ft 421 kts 259°
2026-04-24 04:13 52.08752 -108.12706 30115 ft 424 kts 259°
2026-04-24 04:13 52.08297 -108.17456 30514 ft 427 kts 258°
2026-04-24 04:14 52.07839 -108.22228 30902 ft 429 kts 258°
2026-04-24 04:14 52.07375 -108.27032 31315 ft 431 kts 258°
2026-04-24 04:14 52.06908 -108.31851 31705 ft 433 kts 258°
2026-04-24 04:14 52.06437 -108.36688 32074 ft 435 kts 258°
2026-04-24 04:15 52.05961 -108.41553 32486 ft 436 kts 258°
2026-04-24 04:15 52.05484 -108.46407 33019 ft 434 kts 258°
2026-04-24 04:15 52.05008 -108.51237 33538 ft 432 kts 257°
2026-04-24 04:15 52.04531 -108.56051 34012 ft 431 kts 258°
2026-04-24 04:16 52.04054 -108.60844 34376 ft 430 kts 257°
2026-04-24 04:16 52.03575 -108.65636 34740 ft 430 kts 258°
2026-04-24 04:16 52.03094 -108.70422 35073 ft 430 kts 257°
2026-04-24 04:16 52.02610 -108.75220 35413 ft 430 kts 258°
2026-04-24 04:17 52.02125 -108.80015 35739 ft 431 kts 257°
2026-04-24 04:17 52.01636 -108.84823 35908 ft 434 kts 257°
2026-04-24 04:17 52.00631 -108.94639 35906 ft 447 kts 257°
2026-04-24 04:18 51.99591 -109.04713 35908 ft 456 kts 257°
2026-04-24 04:18 51.98534 -109.14873 35913 ft 457 kts 257°
2026-04-24 04:19 51.97468 -109.25028 35922 ft 456 kts 257°
2026-04-24 04:19 51.96394 -109.35161 35929 ft 456 kts 257°
2026-04-24 04:20 51.95313 -109.45286 35926 ft 455 kts 257°
2026-04-24 04:20 51.94223 -109.55395 35927 ft 455 kts 257°
2026-04-24 04:21 51.93125 -109.65498 35930 ft 455 kts 257°
2026-04-24 04:21 51.92021 -109.75580 35929 ft 455 kts 257°
2026-04-24 04:22 51.90908 -109.85664 35935 ft 454 kts 257°
2026-04-24 04:22 51.89790 -109.95726 35933 ft 454 kts 257°
2026-04-24 04:23 51.88659 -110.05708 35937 ft 453 kts 256°
2026-04-24 04:23 51.87517 -110.15735 35945 ft 453 kts 257°
2026-04-24 04:24 51.86367 -110.25756 35947 ft 452 kts 257°
2026-04-24 04:24 51.85210 -110.35759 35956 ft 452 kts 256°
2026-04-24 04:25 51.84046 -110.45741 35958 ft 451 kts 256°
2026-04-24 04:25 51.82875 -110.55711 35969 ft 451 kts 256°
2026-04-24 04:26 51.81696 -110.65662 35974 ft 450 kts 256°
2026-04-24 04:26 51.80513 -110.75587 35984 ft 450 kts 256°
2026-04-24 04:27 51.79322 -110.85493 35992 ft 449 kts 256°
2026-04-24 04:27 51.78124 -110.95374 35999 ft 448 kts 256°
2026-04-24 04:28 51.76921 -111.05244 36004 ft 447 kts 256°
2026-04-24 04:28 51.75712 -111.15077 36015 ft 446 kts 256°
2026-04-24 04:29 51.74498 -111.24883 36018 ft 445 kts 256°
2026-04-24 04:29 51.73278 -111.34663 36026 ft 444 kts 256°
2026-04-24 04:30 51.72054 -111.44414 36031 ft 442 kts 256°
2026-04-24 04:30 51.70825 -111.54124 36038 ft 442 kts 256°
2026-04-24 04:31 51.69589 -111.63826 36043 ft 441 kts 256°
2026-04-24 04:31 51.68348 -111.73498 36048 ft 441 kts 255°
2026-04-24 04:32 51.67101 -111.83153 36050 ft 439 kts 256°
2026-04-24 04:32 51.65848 -111.92782 36058 ft 439 kts 256°
2026-04-24 04:33 51.64588 -112.02405 36067 ft 438 kts 255°
2026-04-24 04:33 51.63335 -112.11921 35490 ft 430 kts 255°
2026-04-24 04:34 51.62712 -112.16616 34842 ft 429 kts 255°
2026-04-24 04:34 51.62084 -112.21336 34210 ft 433 kts 255°
2026-04-24 04:34 51.61458 -112.26026 33515 ft 435 kts 254°
2026-04-24 04:34 51.60818 -112.30805 32832 ft 438 kts 255°
2026-04-24 04:35 51.60175 -112.35593 32223 ft 438 kts 254°
2026-04-24 04:35 51.59533 -112.40366 31636 ft 435 kts 254°
2026-04-24 04:35 51.58893 -112.45105 31025 ft 431 kts 254°
2026-04-24 04:35 51.58256 -112.49799 30419 ft 428 kts 254°
2026-04-24 04:36 51.57622 -112.54461 29739 ft 425 kts 254°
2026-04-24 04:36 51.56991 -112.59082 29096 ft 421 kts 254°
2026-04-24 04:36 51.56366 -112.63656 28516 ft 416 kts 254°
2026-04-24 04:36 51.55747 -112.68163 27952 ft 411 kts 254°
2026-04-24 04:37 51.55132 -112.72623 27381 ft 406 kts 254°
2026-04-24 04:37 51.54524 -112.77027 26835 ft 402 kts 254°
2026-04-24 04:37 51.53920 -112.81390 26292 ft 398 kts 254°
2026-04-24 04:37 51.53319 -112.85706 25758 ft 394 kts 254°
2026-04-24 04:38 51.52724 -112.89978 25219 ft 390 kts 255°
2026-04-24 04:38 51.52133 -112.94213 24700 ft 386 kts 255°
2026-04-24 04:38 51.51547 -112.98402 24205 ft 383 kts 255°
2026-04-24 04:38 51.50966 -113.02548 23692 ft 380 kts 255°
2026-04-24 04:39 51.50386 -113.06671 23111 ft 376 kts 256°
2026-04-24 04:39 51.49814 -113.10734 22594 ft 371 kts 256°
2026-04-24 04:39 51.49248 -113.14736 22139 ft 364 kts 256°
2026-04-24 04:39 51.48692 -113.18666 21687 ft 359 kts 257°
2026-04-24 04:40 51.48140 -113.22553 21232 ft 354 kts 257°
2026-04-24 04:40 51.47343 -113.26260 20685 ft 354 kts 242°
2026-04-24 04:40 51.45885 -113.29424 20229 ft 352 kts 234°
2026-04-24 04:40 51.44349 -113.32497 19462 ft 357 kts 234°
2026-04-24 04:41 51.42769 -113.35612 18669 ft 362 kts 234°
2026-04-24 04:41 51.41180 -113.38711 17797 ft 368 kts 234°
2026-04-24 04:41 51.39545 -113.41871 16939 ft 359 kts 234°
2026-04-24 04:41 51.37990 -113.44865 16147 ft 351 kts 234°
2026-04-24 04:42 51.36446 -113.47833 15358 ft 344 kts 234°
2026-04-24 04:42 51.34926 -113.50748 14601 ft 338 kts 234°
2026-04-24 04:42 51.33432 -113.53614 13872 ft 334 kts 234°
2026-04-24 04:42 51.31949 -113.56450 13073 ft 330 kts 234°
2026-04-24 04:43 51.30555 -113.59116 12337 ft 332 kts 234°
2026-04-24 04:43 51.29052 -113.61989 11534 ft 341 kts 234°
2026-04-24 04:43 51.27514 -113.64924 10856 ft 346 kts 235°
2026-04-24 04:43 51.25988 -113.67834 10598 ft 336 kts 235°
2026-04-24 04:44 51.24511 -113.70646 10452 ft 323 kts 235°
2026-04-24 04:44 51.23119 -113.73293 10323 ft 300 kts 236°
2026-04-24 04:44 51.21819 -113.75761 10165 ft 282 kts 236°
2026-04-24 04:44 51.20579 -113.78122 10008 ft 275 kts 236°
2026-04-24 04:45 51.19339 -113.80479 9640 ft 279 kts 236°
2026-04-24 04:45 51.18048 -113.82833 9269 ft 287 kts 229°
2026-04-24 04:45 51.16307 -113.84457 8876 ft 297 kts 200°
2026-04-24 04:45 51.14251 -113.84838 8577 ft 300 kts 181°
2026-04-24 04:46 51.12192 -113.84835 8423 ft 288 kts 181°
2026-04-24 04:46 51.10249 -113.84843 8294 ft 271 kts 181°
2026-04-24 04:46 51.08418 -113.84845 8156 ft 256 kts 181°
2026-04-24 04:46 51.06635 -113.84849 8053 ft 260 kts 181°
2026-04-24 04:47 51.04806 -113.84857 7913 ft 265 kts 181°
2026-04-24 04:47 51.02954 -113.84865 7743 ft 266 kts 181°
2026-04-24 04:47 51.01116 -113.84873 7576 ft 262 kts 181°
2026-04-24 04:47 50.99322 -113.84882 7428 ft 255 kts 182°
2026-04-24 04:48 50.97575 -113.84888 7294 ft 247 kts 182°
2026-04-24 04:48 50.95859 -113.84952 7163 ft 246 kts 191°
2026-04-24 04:48 50.94333 -113.85953 7010 ft 233 kts 226°
2026-04-24 04:48 50.93400 -113.87909 6898 ft 217 kts 257°
2026-04-24 04:49 50.93103 -113.90176 6822 ft 208 kts 274°
2026-04-24 04:49 50.92996 -113.92459 6732 ft 207 kts 275°
2026-04-24 04:49 50.92925 -113.94733 6593 ft 206 kts 277°
2026-04-24 04:49 50.93101 -113.96886 6508 ft 189 kts 304°
2026-04-24 04:50 50.93965 -113.98314 6496 ft 178 kts 335°
2026-04-24 04:50 50.95152 -113.98834 6525 ft 179 kts 352°
2026-04-24 04:50 50.96390 -113.99012 6514 ft 178 kts 356°
2026-04-24 04:50 50.97632 -113.99054 6289 ft 178 kts 358°
2026-04-24 04:51 50.98847 -113.99052 6001 ft 171 kts 358°
2026-04-24 04:51 51.00017 -113.99051 5732 ft 166 kts 358°
2026-04-24 04:51 51.01160 -113.99049 5522 ft 160 kts 358°
2026-04-24 04:51 51.02231 -113.99048 5305 ft 150 kts 358°
2026-04-24 04:52 51.03266 -113.99048 5140 ft 148 kts 358°
2026-04-24 04:52 51.04272 -113.99046 4907 ft 141 kts 358°
2026-04-24 04:52 51.05235 -113.99045 4575 ft 137 kts 358°
2026-04-24 04:52 51.06187 -113.99041 4353 ft 136 kts 359°
2026-04-24 04:53 51.07105 -113.99027 4278 ft 131 kts 358°
2026-04-24 04:53 51.08029 -113.99047 4187 ft 133 kts 357°
2026-04-24 04:53 51.08926 -113.99018 4053 ft 129 kts 358°
2026-04-24 04:53 51.09817 -113.99036 3881 ft 129 kts 358°
2026-04-24 04:54 51.10701 -113.99033 3714 ft 123 kts 359°
2026-04-24 04:54 51.11524 -113.99035 3563 ft 109 kts 360°
2026-04-24 04:54 51.12127 -113.99032 3566 ft 56 kts 359°
2026-04-24 04:54 51.12366 -113.99103 3567 ft 33 kts 335°
2026-04-24 04:55 51.12481 -113.99210 3560 ft 13 kts 329°
2026-04-24 04:55 51.12508 -113.99235 3562 ft 3 kts 329°
2026-04-24 04:55 51.12511 -113.99238 3558 ft 0 kts 329°
2026-04-24 04:55 51.12512 -113.99239 3558 ft 0 kts 329°
2026-04-24 04:56 51.12530 -113.99256 3559 ft 5 kts 329°
2026-04-24 04:56 51.12556 -113.99280 3559 ft 1 kts 330°
2026-04-24 04:56 51.12575 -113.99297 3558 ft 5 kts 330°
2026-04-24 04:57 51.12609 -113.99348 3561 ft 8 kts 295°
2026-04-24 04:57 51.12642 -113.99437 3562 ft 11 kts 333°
2026-04-24 04:57 51.12726 -113.99449 3557 ft 13 kts 358°
2026-04-24 04:57 51.12826 -113.99446 3562 ft 16 kts
2026-04-24 04:58 51.12925 -113.99493 3561 ft 15 kts 294°
2026-04-24 04:58 51.13010 -113.99552 3562 ft 15 kts 360°
2026-04-24 04:58 51.13113 -113.99553 3559 ft 10 kts 359°
2026-04-24 04:58 51.13160 -113.99605 3562 ft 10 kts 273°
2026-04-24 04:59 51.13160 -113.99731 3562 ft 13 kts 270°
2026-04-24 04:59 51.13161 -113.99872 3560 ft 13 kts 270°
2026-04-24 04:59 51.13161 -114.00025 3562 ft 14 kts 269°
2026-04-24 04:59 51.13140 -114.00127 3558 ft 5 kts 241°
2026-04-24 05:00 51.13139 -114.00129 3559 ft 0 kts 240°
2026-04-24 05:01 51.13138 -114.00132 3562 ft 1 kts 240°
2026-04-24 05:01 51.13127 -114.00163 3558 ft 5 kts 240°
2026-04-24 05:01 51.13100 -114.00210 3562 ft 3 kts 210°
2026-04-24 05:01 51.13082 -114.00228 3562 ft 1 kts 212°
2026-04-24 05:02 51.13081 -114.00228 3562 ft 0 kts 212°